Theta_e
314 314 314 314 313 313 314 315 315 315 316 315 315 315 314 314 313 307 306 307 306 304 304 306 307 304 304 304 301 302 302 303 304 300 300 300 298 300 297 299 299 297 295 295 298 294 290 308 306 299 307 311 311 312
314 314 313 313 313 313 313 314 314 315 315 315 315 315 314 313 312 309 305 306 306 304 305 306 309 310 309 308 305 304 303 303 306 301 301 301 298 299 296 293 300 294 299 299 300 299 309 308 307 311 312 310 310 312
314 313 313 313 312 313 313 314 315 315 315 315 314 315 314 313 312 310 306 304 305 304 305 305 306 309 310 310 312 304 306 306 306 307 305 303 297 300 295 295 297 301 305 300 300 302 305 307 308 310 311 311 312 313
313 313 313 313 313 313 314 314 315 315 315 316 314 315 314 313 312 309 306 305 306 304 300 302 309 307 310 309 309 310 308 308 308 308 305 302 299 303 299 300 298 302 303 301 301 304 305 307 309 310 310 311 311 313
313 313 313 312 313 313 314 314 314 314 315 315 315 314 314 313 311 306 307 308 307 305 299 301 306 307 308 309 308 308 307 306 306 304 303 301 304 301 302 301 299 304 301 297 298 306 306 306 310 313 312 311 312 311
312 312 312 312 313 313 314 314 314 314 314 314 314 314 313 313 309 307 307 310 310 308 302 297 304 304 307 309 308 306 307 306 306 305 304 306 307 303 297 297 305 307 307 306 303 309 310 311 312 315 312 314 314 314
312 312 312 312 313 313 313 313 313 314 314 314 314 313 313 312 310 306 304 308 308 309 303 297 299 305 305 307 310 309 307 307 307 306 304 304 305 303 300 297 306 307 307 308 312 312 310 312 310 314 314 315 315 318
312 312 312 312 312 313 313 313 313 313 314 314 314 313 312 309 309 310 312 309 309 306 305 297 298 301 306 305 306 308 307 308 306 306 306 304 306 304 298 305 306 307 310 310 309 311 311 312 314 313 315 315 314 316
312 312 312 312 312 313 313 312 313 313 313 313 313 311 310 310 309 310 311 310 310 307 300 300 297 298 305 305 306 307 307 303 306 304 302 304 303 298 302 303 304 307 308 307 309 310 310 310 312 312 313 313 313 315
311 312 312 312 312 312 312 312 312 313 312 311 309 308 306 309 314 312 310 306 305 304 301 299 300 300 303 304 304 304 303 300 299 304 305 299 300 305 306 308 308 309 309 310 307 305 307 308 311 310 312 313 313 314
311 311 311 311 312 312 312 312 313 312 308 307 305 306 307 309 309 305 300 300 301 299 300 301 300 300 305 301 301 303 301 301 295 301 299 299 299 305 309 308 310 311 311 311 311 311 311 311 310 311 312 314 314 315
311 310 310 310 312 312 311 312 312 309 306 305 305 305 307 305 301 297 296 299 297 299 302 302 304 302 305 307 302 302 299 301 293 303 298 294 302 306 307 307 310 311 312 314 316 315 316 315 315 314 314 314 314 315
311 310 309 311 311 311 311 312 311 309 306 307 305 301 300 298 289 292 292 296 299 304 307 305 305 307 305 306 303 300 296 296 302 297 295 299 304 306 307 309 311 312 314 315 316 317 318 318 319 317 315 316 315 315
310 310 310 311 311 311 312 312 312 308 306 302 299 288 294 292 295 296 299 300 304 306 306 306 306 306 305 302 301 296 300 299 294 292 293 303 304 306 307 309 310 311 313 314 316 317 316 317 316 319 318 317 316 316
310 310 310 310 311 311 312 312 310 307 306 300 300 290 295 300 300 302 303 302 305 307 306 304 305 306 304 301 300 298 295 293 294 294 302 306 306 306 306 307 309 311 313 316 317 316 316 317 317 317 320 318 318 318
310 310 310 310 311 312 311 309 306 305 304 301 300 297 300 299 300 302 302 303 306 305 306 305 300 300 300 301 296 295 293 291 298 304 307 308 307 306 307 311 313 314 316 317 318 318 319 318 318 319 322 321 320 322
310 309 310 311 311 311 309 305 304 301 300 299 298 302 301 300 300 301 303 304 306 304 301 303 297 297 304 299 297 300 298 302 306 307 309 309 307 307 308 312 314 316 316 317 318 319 318 319 319 317 319 323 324 325
308 311 311 311 309 308 306 306 303 301 297 299 297 300 300 302 301 302 303 304 304 303 303 300 303 298 296 294 298 305 308 308 309 309 309 307 309 315 317 314 314 316 318 319 321 321 321 318 317 320 325 326 325 326
309 311 311 310 309 306 302 302 303 298 299 301 302 301 302 302 304 304 305 305 305 306 304 303 300 297 298 303 303 305 307 308 307 308 308 312 316 318 319 316 319 318 317 319 321 321 321 322 322 322 324 324 326 328
310 310 310 310 310 303 299 299 304 298 297 300 300 300 301 301 303 303 303 303 303 303 301 299 299 302 304 306 308 308 308 309 307 306 308 312 317 319 318 317 320 320 319 318 322 313 323 324 325 325 325 322 321 321
309 310 310 309 305 304 302 302 301 302 301 299 301 300 301 302 301 301 301 303 301 300 299 303 303 306 311 311 310 310 309 310 308 308 308 310 316 317 319 320 322 322 319 319 319 321 318 320 324 326 326 324 324 325
307 310 305 307 302 301 299 301 300 301 299 300 299 300 298 298 300 299 302 300 300 303 305 305 306 307 309 310 309 313 312 313 312 313 308 312 316 319 319 320 320 320 320 319 319 320 320 323 322 325 322 323 322 323
308 306 303 302 298 294 293 301 298 299 295 297 300 298 299 300 302 302 300 302 304 308 308 308 310 311 310 313 316 318 318 316 317 319 320 320 321 322 321 322 322 321 322 322 323 322 322 313 319 325 323 323 326 326
307 301 297 296 297 293 298 296 299 297 298 297 296 295 299 302 306 304 302 306 309 311 312 313 312 313 317 318 316 317 319 319 320 320 323 321 321 320 321 322 323 323 324 324 324 324 324 323 315 325 325 321 321 320
295 294 294 287 296 295 293 294 295 295 294 297 296 297 301 304 301 300 301 305 309 311 314 315 315 312 315 314 313 317 321 319 318 318 322 322 321 321 322 323 322 322 324 323 322 322 322 323 322 321 320 320 318 319
289 295 292 294 293 293 293 291 293 295 296 295 297 301 304 301 297 297 303 305 307 309 312 311 314 311 309 312 316 312 314 317 320 321 324 324 322 320 319 316 315 318 324 324 323 322 322 320 318 318 318 316 307 318
290 293 296 299 298 297 295 296 297 296 295 295 298 299 297 295 295 302 308 308 308 312 312 311 313 314 310 311 313 316 317 319 322 323 324 325 323 322 321 317 316 319 323 323 324 323 322 320 320 320 320 321 321 320
296 296 293 295 296 298 294 296 295 294 297 301 301 297 296 297 299 305 309 311 313 313 311 312 313 315 314 314 316 317 317 323 324 323 324 324 324 323 323 322 321 303 318 317 324 324 324 323 322 319 317 318 319 319
294 296 296 293 295 296 296 296 296 299 303 304 301 299 300 307 309 309 311 311 310 310 311 312 314 315 315 317 318 319 319 322 320 316 312 313 318 320 322 321 320 321 321 318 298 307 317 319 320 320 320 318 318 317
294 297 295 294 294 294 299 302 300 303 302 305 306 304 303 304 307 310 308 308 308 310 312 313 313 314 314 316 316 319 322 324 324 317 313 316 320 323 322 317 317 317 317 317 317 317 305 315 312 317 315 315 315 314
298 296 295 296 295 299 301 304 304 304 303 302 303 301 301 304 307 309 309 311 312 313 312 312 314 317 317 317 318 318 319 322 323 321 323 326 325 322 320 318 317 316 316 316 315 315 315 315 315 315 315 314 314 313
296 296 295 294 296 301 301 300 300 300 301 301 301 302 303 303 302 309 312 314 312 311 309 313 317 318 321 321 322 323 305 322 323 322 325 325 321 321 320 318 317 316 316 316 315 316 316 315 315 314 315 315 315 314
296 297 297 297 297 297 301 300 300 301 302 302 304 305 305 305 303 309 316 315 315 316 317 318 320 321 320 322 319 318 310 321 311 299 299 303 303 309 318 320 319 317 317 316 316 315 314 314 314 315 315 315 314 314
Wind_Speed
7 7 7 7 8 8 9 9 10 11 10 12 13 14 15 16 17 5 2 5 3 2 4 2 2 3 2 0 2 3 3 3 1 1 2 1 2 1 3 2 3 3 4 3 2 5 9 9 4 7 10 10 12 11
7 7 6 7 7 8 9 8 9 10 9 9 11 12 12 13 15 9 2 2 2 3 3 3 5 6 2 3 3 2 3 1 1 2 1 0 3 2 1 4 2 4 5 3 6 5 7 15 11 8 11 14 15 12
8 7 7 6 6 7 8 9 8 9 9 8 10 11 11 11 12 7 2 4 2 2 3 3 2 2 2 6 5 3 2 0 3 2 1 0 5 2 4 6 5 4 6 7 8 6 10 15 20 18 13 14 15 15
9 8 8 7 7 7 8 9 8 9 9 8 8 9 10 10 11 8 1 2 1 0 2 2 3 3 2 1 6 9 1 3 3 1 2 3 4 5 4 7 8 9 4 10 15 16 16 16 12 12 19 17 19 17
9 9 9 8 8 8 8 8 8 8 9 8 7 8 8 9 9 3 1 2 1 4 4 5 9 1 6 5 7 9 9 7 3 3 4 5 3 3 5 4 9 9 12 7 12 12 12 15 14 16 16 18 18 17
10 10 9 9 9 8 8 8 8 8 8 8 7 7 8 7 7 2 2 2 3 2 2 3 3 4 5 7 3 4 6 5 4 3 3 3 2 3 3 6 11 11 11 13 14 12 15 15 14 15 11 18 19 18
11 10 10 9 8 8 7 7 8 8 8 7 7 7 7 7 2 2 3 3 2 2 1 4 4 2 5 3 1 2 3 2 3 2 3 4 4 3 4 14 19 8 8 11 11 13 13 14 14 20 19 19 18 17
11 11 10 10 9 8 7 7 7 7 7 7 7 8 8 2 2 1 2 2 4 1 1 2 3 3 5 3 2 2 0 1 2 2 2 3 1 2 5 7 7 7 9 9 10 11 15 15 19 19 19 16 18 14
12 11 11 9 8 7 6 6 6 7 6 7 7 6 1 0 1 2 4 4 2 2 1 1 3 2 4 1 2 1 2 2 0 2 2 2 2 5 5 8 12 12 9 15 15 18 18 18 21 19 19 17 15 14
12 11 10 9 7 6 5 5 6 5 5 6 2 2 2 2 4 1 3 1 0 2 0 2 0 2 3 2 0 3 1 2 3 1 1 3 4 7 10 10 13 15 16 17 17 17 14 14 17 16 18 15 13 14
12 12 12 8 7 6 5 4 4 1 0 1 0 1 2 4 1 1 1 2 0 2 3 2 3 4 2 3 3 2 3 2 2 1 3 2 2 4 10 17 17 17 17 17 17 17 16 16 14 15 17 16 13 12
13 12 11 9 8 7 5 5 4 1 0 2 1 0 1 1 2 1 1 1 2 1 3 2 1 3 1 2 2 1 2 2 3 5 2 2 4 12 15 20 19 16 16 16 14 13 15 14 15 15 15 15 12 10
14 14 12 9 9 7 6 6 6 4 4 1 1 1 1 1 1 3 3 2 2 3 3 2 2 2 2 2 1 1 3 3 4 3 2 3 10 13 15 16 20 18 18 15 15 14 14 12 11 12 14 12 11 10
14 12 11 10 9 8 8 8 7 4 1 1 1 3 2 3 4 3 1 2 2 2 3 3 2 2 1 2 0 3 1 2 3 2 3 6 12 14 18 18 16 18 18 17 17 14 12 11 9 10 11 10 10 10
14 12 10 9 9 9 9 8 7 1 2 2 2 3 5 2 3 3 3 4 2 3 3 2 2 2 1 2 1 2 2 3 2 3 8 10 13 12 17 19 18 16 15 15 14 12 13 12 9 9 8 9 10 10
12 9 7 9 11 11 10 8 2 1 1 2 3 3 3 3 2 2 2 2 1 3 1 1 0 2 1 1 1 2 2 2 4 5 9 12 14 14 17 17 16 14 14 13 13 11 11 11 9 9 7 8 9 10
13 3 12 13 13 13 10 2 2 3 2 3 3 3 3 4 5 3 2 2 2 3 1 2 4 1 1 3 3 3 4 4 5 9 9 12 10 12 15 14 13 13 13 12 12 12 10 10 6 3 6 6 7 9
1 4 16 17 11 7 1 1 2 2 5 4 4 2 3 4 3 3 3 3 2 1 2 2 2 4 4 3 3 3 4 6 7 9 10 12 11 12 10 11 12 12 14 13 14 13 11 9 7 5 6 6 5 6
5 9 19 18 6 3 3 2 1 3 5 2 3 3 3 4 5 7 6 4 3 1 3 3 5 5 6 4 6 7 6 7 9 12 11 12 9 9 12 11 12 11 12 13 13 9 8 8 7 6 5 4 3 3
13 16 18 11 3 3 3 1 1 2 3 0 2 3 3 4 2 3 4 4 4 4 5 6 6 7 4 4 5 8 7 7 9 11 12 11 8 9 10 9 8 11 9 10 9 7 8 7 6 7 6 5 4 3
6 9 12 4 1 1 1 3 3 2 1 3 1 2 4 2 4 3 3 5 4 4 5 8 9 9 9 8 8 7 9 9 8 6 10 11 11 9 8 8 9 6 5 10 10 10 9 8 8 6 8 7 6 5
3 7 3 1 2 1 1 0 0 1 2 2 2 2 4 3 2 2 4 4 4 5 6 7 9 9 9 9 8 7 9 10 7 8 8 8 7 7 7 7 7 6 5 5 6 8 8 7 6 6 7 6 8 8
8 3 3 2 3 2 2 1 3 3 3 1 1 3 3 3 1 3 3 3 3 2 2 3 5 5 7 7 7 6 4 5 6 6 6 6 6 5 4 5 5 6 7 6 6 6 7 7 7 7 5 6 7 9
3 3 3 3 3 4 3 4 3 2 2 2 3 3 3 2 1 3 3 1 1 3 2 4 3 4 3 3 3 3 2 2 5 5 4 6 6 5 4 4 4 5 5 5 6 7 8 9 8 8 9 9 9 10
5 2 3 0 1 4 4 4 4 3 4 4 3 3 1 1 2 2 1 1 3 3 4 2 1 2 3 3 4 4 3 2 5 5 4 4 5 4 3 3 6 7 7 7 8 8 8 9 10 11 12 11 11 14
3 4 5 6 4 4 4 4 5 6 4 3 4 2 1 2 2 2 1 1 2 2 3 3 4 3 1 1 3 5 4 5 5 3 2 4 4 4 5 7 7 8 8 6 7 9 10 10 11 13 12 14 13 14
3 4 3 1 2 2 2 2 1 1 2 4 3 3 1 3 2 2 1 1 3 2 2 4 4 4 4 3 4 5 5 5 4 3 4 4 4 3 5 7 8 6 6 8 8 9 10 11 12 13 13 12 13 12
1 3 4 6 3 2 1 2 4 5 4 2 2 4 3 3 1 3 3 5 5 5 7 5 4 4 3 3 5 6 5 3 1 1 2 4 4 5 6 6 6 6 8 9 8 9 10 11 12 12 12 12 11 10
2 2 3 4 3 4 5 5 4 3 3 3 2 2 2 2 2 2 4 4 4 4 4 3 1 2 4 4 4 3 2 3 4 8 6 3 3 5 4 5 6 7 7 10 13 11 11 10 10 11 12 11 10 10
2 4 3 4 4 6 4 6 3 1 2 2 1 1 3 4 5 5 6 5 4 4 3 3 3 3 4 3 3 2 1 2 2 4 4 1 2 3 4 6 7 7 7 9 9 10 8 11 11 11 12 11 11 11
2 4 3 4 4 5 7 7 5 3 3 4 4 6 10 5 3 4 5 4 4 3 3 4 3 3 4 4 3 3 2 3 6 6 1 2 4 5 5 5 5 6 7 8 8 9 9 9 10 11 12 12 11 10
4 6 4 4 3 2 3 4 3 4 4 5 4 4 2 3 4 2 1 2 2 3 3 3 5 4 3 4 5 4 5 5 7 4 7 4 4 5 6 5 5 5 5 6 6 6 8 8 8 8 9 10 11 11
3 3 4 4 3 3 1 2 3 3 3 3 4 4 4 3 3 1 1 2 3 3 4 4 3 3 1 2 1 2 3 5 6 2 0 1 2 6 5 4 4 4 5 4 4 5 5 6 6 7 9 10 10 11
Wind_Direction
278 275 288 313 321 327 337 344 347 346 350 357 358 1 7 10 11 7 52 15 354 305 280 229 270 194 153 261 289 63 239 168 167 144 258 150 247 78 265 298 307 287 296 250 234 240 263 30 2 351 341 320 327 329
268 265 276 299 311 328 318 337 330 336 341 348 353 355 1 6 9 3 352 40 334 233 321 313 284 287 286 307 256 205 334 234 125 110 208 192 222 223 304 269 156 249 232 289 237 258 311 306 294 303 312 295 300 305
259 256 260 279 291 295 309 317 314 323 326 335 345 345 353 1 4 18 323 329 266 324 255 263 103 82 140 207 232 263 208 286 170 356 121 47 251 194 242 227 241 229 215 239 274 255 275 297 301 299 303 292 288 295
249 244 250 268 274 290 301 308 313 316 312 322 333 334 342 351 356 1 326 7 332 30 314 84 322 302 310 223 230 234 311 129 80 239 238 231 250 200 244 279 254 271 211 251 264 276 278 272 283 298 300 294 289 286
245 239 243 256 267 278 290 305 310 313 312 318 323 323 334 344 354 31 76 23 328 344 317 306 306 205 287 270 267 226 220 227 226 217 214 235 230 200 244 274 256 233 255 238 269 291 278 291 296 302 301 294 285 284
239 233 235 243 259 272 287 294 300 305 302 306 307 311 323 339 348 231 182 138 51 3 303 307 349 270 313 332 69 149 196 206 223 228 229 225 260 206 246 258 269 255 247 250 268 284 288 282 287 295 303 306 299 289
233 228 226 235 256 272 278 283 290 294 293 292 295 302 314 322 314 345 26 16 168 304 287 300 319 351 321 307 37 100 153 188 244 250 239 275 259 195 255 263 282 296 282 280 283 290 276 272 287 301 301 298 294 288
224 220 224 241 253 262 268 280 292 297 294 291 295 305 320 1 218 230 60 55 149 101 308 316 292 293 8 342 320 2 14 215 176 305 218 247 218 235 260 291 301 272 258 271 276 279 270 272 282 286 293 297 289 293
217 214 219 229 241 251 262 278 293 298 296 298 306 313 183 63 61 34 119 114 50 331 299 288 319 346 354 20 282 272 2 287 99 261 257 250 208 231 246 268 269 259 257 275 280 284 277 272 274 276 282 283 284 291
212 207 215 224 239 241 251 273 288 292 306 303 270 225 138 42 313 209 210 257 121 30 52 256 7 292 318 331 333 315 48 308 288 75 335 223 252 274 272 275 280 276 283 285 282 285 270 256 262 263 271 273 274 281
200 204 217 225 230 229 237 257 267 294 200 268 284 80 30 323 240 21 301 276 325 237 184 238 241 298 127 305 328 4 340 310 285 75 307 270 273 286 322 312 312 299 294 286 280 271 264 257 258 258 264 261 267 277
193 202 208 216 223 218 225 222 180 159 28 55 31 136 223 103 53 295 271 231 228 321 186 232 241 226 280 286 264 64 295 284 274 342 275 267 264 311 314 315 310 308 307 299 293 287 275 262 254 247 252 257 259 266
188 201 205 207 206 202 209 197 181 129 135 165 199 115 41 108 18 230 171 165 228 201 206 222 265 226 174 224 243 289 267 256 314 235 259 249 278 312 318 313 310 311 314 306 307 308 306 290 268 243 252 252 257 261
182 190 195 197 195 192 189 180 172 152 161 210 167 345 229 196 241 212 245 337 347 261 321 291 242 260 94 228 166 266 309 282 261 274 263 281 306 306 311 313 312 311 313 307 307 308 305 299 279 269 249 246 245 246
177 178 182 193 188 185 179 170 164 190 187 197 175 226 219 258 260 267 279 280 262 285 291 253 141 260 186 256 196 287 254 284 287 264 278 300 303 308 308 312 310 309 311 307 310 309 308 307 289 271 248 234 234 244
158 147 190 178 175 170 151 133 142 154 186 204 218 236 198 258 246 220 234 275 333 316 230 220 304 253 231 264 222 248 280 247 261 259 293 302 306 305 307 312 311 309 305 313 316 315 316 310 295 276 264 238 234 238
157 202 170 165 158 145 138 115 152 194 218 217 226 225 253 285 265 263 249 250 335 303 320 302 266 286 122 238 231 189 222 228 279 303 301 297 301 298 302 308 313 322 325 317 313 323 327 329 336 278 264 262 249 256
132 149 150 145 128 127 100 212 181 167 234 222 234 190 209 241 245 231 226 221 256 241 220 262 315 242 248 232 218 230 252 269 288 293 297 300 300 298 294 302 304 314 323 323 335 338 345 349 351 343 321 309 290 265
145 154 150 144 148 128 135 173 200 232 230 241 252 232 248 256 238 257 259 240 215 258 278 232 247 235 232 241 258 276 292 304 307 310 303 299 292 300 303 303 306 312 322 328 336 342 343 342 342 330 336 344 316 339
137 149 155 127 93 115 133 159 219 233 247 38 238 237 243 250 287 245 244 202 181 187 207 227 233 247 250 263 258 283 288 300 305 304 308 314 328 327 321 316 326 314 308 317 330 342 357 4 5 358 0 356 21 12
112 131 125 110 118 89 158 157 181 222 254 249 291 261 267 244 245 229 228 163 189 216 230 237 252 259 261 266 274 286 287 283 282 274 288 302 316 320 310 327 339 323 326 346 341 344 6 2 353 350 12 16 33 44
100 121 110 132 109 102 152 27 62 140 234 285 264 239 268 260 236 192 135 197 227 226 222 246 250 260 265 270 276 272 277 288 284 282 273 279 291 316 330 337 333 336 329 326 329 337 349 0 353 29 17 21 40 47
115 95 83 112 107 101 175 218 203 201 250 258 258 250 233 242 187 147 236 224 265 252 266 267 273 266 265 287 291 303 311 312 312 316 317 312 298 301 328 344 344 347 8 0 341 351 3 17 20 56 34 36 55 62
69 74 115 140 158 155 157 184 197 226 229 238 230 256 232 239 251 226 264 249 300 301 273 285 305 302 180 150 34 4 328 299 312 320 332 330 340 0 10 13 12 6 357 351 359 8 23 35 50 61 65 59 53 61
99 149 127 98 177 157 185 180 186 193 235 218 256 260 213 270 240 231 258 0 337 329 313 299 247 272 36 36 324 335 354 327 339 320 2 347 348 24 54 52 50 21 357 10 20 29 34 39 49 55 58 62 64 68
141 169 174 171 154 189 175 188 201 206 202 227 236 261 252 266 262 258 72 334 277 287 326 321 324 343 332 287 321 336 341 345 318 290 23 359 10 356 24 36 27 21 7 13 17 41 56 57 57 60 67 68 64 77
149 163 173 240 180 162 209 234 254 207 231 216 234 179 217 231 240 107 151 275 255 264 230 281 263 240 243 272 291 305 328 327 297 322 351 7 11 3 26 42 34 10 3 29 40 50 67 71 75 75 74 69 64 68
75 168 166 166 195 224 254 209 195 209 219 205 228 195 213 227 189 196 186 263 260 274 295 288 254 260 282 313 312 312 318 326 311 233 249 74 39 51 70 78 67 36 51 31 50 62 68 70 72 70 65 66 68 63
191 156 163 169 183 196 218 223 231 218 193 198 198 163 229 232 239 216 209 264 300 297 287 284 266 296 288 283 275 265 249 245 128 115 78 22 48 58 45 64 69 66 73 76 52 54 64 69 73 74 74 76 75 77
184 175 195 182 209 218 221 205 232 225 195 252 272 232 246 244 252 268 277 279 272 252 260 286 288 284 299 316 314 324 212 188 162 148 164 152 109 113 108 91 82 81 80 80 81 80 79 86 86 81 77 75 74 74
136 186 227 222 247 241 236 239 249 247 245 245 232 254 268 286 273 234 242 242 225 223 267 293 298 287 279 276 255 258 185 167 174 221 227 157 161 147 133 113 107 103 99 96 94 93 88 81 78 77 75 73 71 73
190 205 213 228 249 244 200 210 216 215 225 212 228 205 222 223 252 263 73 183 201 238 248 268 281 296 310 278 261 244 217 170 192 179 196 186 156 137 135 131 128 120 113 101 95 90 85 79 76 75 79 69 65 74
208 202 226 259 254 248 198 230 218 252 217 227 207 195 204 215 248 351 87 226 267 283 290 297 308 312 356 83 76 112 87 114 102 95 262 340 71 133 139 136 133 144 142 129 114 109 93 84 77 70 67 68 68 59